| time (UTC) | temp F | wind direction | speed MPH | gust MPH | rain 1hr in | rain 24hr in | rain mn in | humidity % | barometer mb |
| 20260504040130 | 64 | 315 | 0.0 | 0.0 | 0.00 | 0.00 | 0.00 | 22 | 1012.9 |
| 20260504035133 | 64 | 315 | 0.0 | 0.0 | 0.00 | 0.00 | 0.00 | 23 | 1012.9 |
| 20260504034230 | 65 | 336 | 2.0 | 4.0 | 0.00 | 0.00 | 0.00 | 22 | 1012.9 |
| 20260504033231 | 65 | 270 | 2.0 | 3.0 | 0.00 | 0.00 | 0.00 | 22 | 1012.9 |
| 20260504032232 | 66 | 315 | 2.0 | 3.0 | 0.00 | 0.00 | 0.00 | 21 | 1013.0 |
| 20260504031332 | 67 | 337 | 0.0 | 3.0 | 0.00 | 0.00 | 0.00 | 20 | 1012.6 |
| 20260504030331 | 67 | 315 | 2.0 | 4.0 | 0.00 | 0.00 | 0.00 | 20 | 1012.6 |
| 20260504024431 | 66 | 360 | 2.0 | 3.0 | 0.00 | 0.00 | 0.00 | 21 | 1012.7 |
| 20260504022533 | 68 | 360 | 2.0 | 4.0 | 0.00 | 0.00 | 0.00 | 21 | 1012.6 |
| 20260504021631 | 68 | 360 | 2.0 | 3.0 | 0.00 | 0.00 | 0.00 | 21 | 1012.6 |
| 20260504020633 | 69 | 360 | 2.0 | 3.0 | 0.00 | 0.00 | 0.00 | 20 | 1012.5 |
| 20260504014632 | 70 | 12 | 3.0 | 5.0 | 0.00 | 0.00 | 0.00 | 19 | 1012.4 |
| 20260504013730 | 71 | 32 | 4.0 | 6.0 | 0.00 | 0.00 | 0.00 | 18 | 1012.5 |
| 20260504012731 | 72 | 37 | 4.0 | 6.0 | 0.00 | 0.00 | 0.00 | 17 | 1012.5 |
| 20260504011830 | 72 | 270 | 0.0 | 0.0 | 0.00 | 0.00 | 0.00 | 16 | 1012.7 |
| 20260504010833 | 72 | 270 | 0.0 | 1.0 | 0.00 | 0.00 | 0.00 | 14 | 1012.8 |
| 20260504003930 | 73 | 293 | 1.0 | 5.0 | 0.00 | 0.00 | 0.00 | 15 | 1013.1 |
| 20260504002931 | 73 | 250 | 4.0 | 6.0 | 0.00 | 0.00 | 0.00 | 15 | 1013.2 |
| 20260504001933 | 73 | 222 | 5.0 | 8.0 | 0.00 | 0.00 | 0.00 | 13 | 1013.3 |
| 20260504001031 | 73 | 135 | 2.0 | 7.0 | 0.00 | 0.00 | 0.00 | 14 | 1013.3 |
| 20260504000033 | 74 | 195 | 4.0 | 5.0 | 0.00 | 0.00 | 0.00 | 14 | 1013.3 |
| 20260503235033 | 74 | 208 | 3.0 | 4.0 | 0.00 | 0.00 | 0.00 | 14 | 1013.4 |
| 20260503234033 | 74 | 180 | 2.0 | 3.0 | 0.00 | 0.00 | 0.00 | 13 | 1013.3 |
| 20260503233036 | 74 | 180 | 3.0 | 4.0 | 0.00 | 0.00 | 0.00 | 13 | 1013.3 |
| 20260503231132 | 74 | 90 | 1.0 | 3.0 | 0.00 | 0.00 | 0.00 | 13 | 1013.3 |
| 20260503231033 | 74 | 90 | 1.0 | 3.0 | 0.00 | 0.00 | 0.00 | 13 | 1013.5 |
| 20260503230034 | 74 | 118 | 3.0 | 5.0 | 0.00 | 0.00 | 0.00 | 12 | 1013.5 |
| 20260503225031 | 75 | 163 | 5.0 | 7.0 | 0.00 | 0.00 | 0.00 | 14 | 1013.7 |
| 20260503224032 | 75 | 135 | 3.0 | 5.0 | 0.00 | 0.00 | 0.00 | 13 | 1013.9 |
| 20260503222932 | 75 | 183 | 4.0 | 5.0 | 0.00 | 0.00 | 0.00 | 14 | 1013.9 |
| 20260503222031 | 75 | 157 | 3.0 | 4.0 | 0.00 | 0.00 | 0.00 | 13 | 1014.0 |
| 20260503221033 | 74 | 182 | 4.0 | 5.0 | 0.00 | 0.00 | 0.00 | 13 | 1014.2 |
| 20260503220132 | 74 | 157 | 2.0 | 3.0 | 0.00 | 0.00 | 0.00 | 13 | 1014.4 |
| 20260503215131 | 74 | 168 | 5.0 | 6.0 | 0.00 | 0.00 | 0.00 | 13 | 1014.7 |
| 20260503214133 | 74 | 168 | 3.0 | 6.0 | 0.00 | 0.00 | 0.00 | 13 | 1014.9 |
| 20260503213230 | 74 | 112 | 5.0 | 8.0 | 0.00 | 0.00 | 0.00 | 15 | 1015.0 |
| 20260503212232 | 73 | 157 | 2.0 | 5.0 | 0.00 | 0.00 | 0.00 | 16 | 1015.3 |
| 20260503211232 | 73 | 113 | 2.0 | 5.0 | 0.00 | 0.00 | 0.00 | 16 | 1015.6 |
| 20260503204231 | 71 | 146 | 4.0 | 7.0 | 0.00 | 0.00 | 0.00 | 18 | 1016.2 |
| 20260503202146 | 70 | 177 | 4.0 | 6.0 | 0.00 | 0.00 | 0.00 | 19 | 1016.6 |
| 20260503201230 | 70 | 157 | 1.0 | 2.0 | 0.00 | 0.00 | 0.00 | 19 | 1017.0 |
| 20260503200232 | 70 | 142 | 3.0 | 5.0 | 0.00 | 0.00 | 0.00 | 19 | 1016.9 |
| 20260503195330 | 69 | 157 | 3.0 | 4.0 | 0.00 | 0.00 | 0.00 | 19 | 1017.0 |
| 20260503195232 | 69 | 148 | 3.0 | 6.0 | 0.00 | 0.00 | 0.00 | 19 | 1017.1 |
| 20260503194249 | 69 | 139 | 2.0 | 4.0 | 0.00 | 0.00 | 0.00 | 20 | 1017.2 |
| 20260503194133 | 69 | 180 | 1.0 | 3.0 | 0.00 | 0.00 | 0.00 | 20 | 1017.3 |
| 20260503192230 | 70 | 160 | 5.0 | 7.0 | 0.00 | 0.00 | 0.00 | 20 | 1017.6 |
| 20260503191233 | 69 | 133 | 2.0 | 4.0 | 0.00 | 0.00 | 0.00 | 20 | 1017.5 |
| 20260503190231 | 69 | 168 | 5.0 | 7.0 | 0.00 | 0.00 | 0.00 | 20 | 1017.8 |
| 20260503185232 | 68 | 137 | 4.0 | 6.0 | 0.00 | 0.00 | 0.00 | 20 | 1018.0 |
| 20260503184331 | 68 | 157 | 3.0 | 5.0 | 0.00 | 0.00 | 0.00 | 21 | 1018.1 |
| 20260503183333 | 67 | 165 | 2.0 | 5.0 | 0.00 | 0.00 | 0.00 | 24 | 1018.3 |
| 20260503183231 | 66 | 172 | 4.0 | 6.0 | 0.00 | 0.00 | 0.00 | 24 | 1018.3 |
| 20260503182233 | 65 | 164 | 3.0 | 6.0 | 0.00 | 0.00 | 0.00 | 24 | 1018.6 |
| 20260503181330 | 65 | 157 | 2.0 | 4.0 | 0.00 | 0.00 | 0.00 | 24 | 1018.7 |
| 20260503180349 | 66 | 151 | 2.0 | 4.0 | 0.00 | 0.00 | 0.00 | 23 | 1018.9 |
| 20260503175431 | 66 | 156 | 3.0 | 6.0 | 0.00 | 0.00 | 0.00 | 25 | 1018.7 |
| 20260503174432 | 66 | 154 | 3.0 | 4.0 | 0.00 | 0.00 | 0.00 | 26 | 1018.9 |
| 20260503173431 | 67 | 159 | 3.0 | 4.0 | 0.00 | 0.00 | 0.00 | 25 | 1018.8 |
| 20260503171330 | 66 | 188 | 2.0 | 4.0 | 0.00 | 0.00 | 0.00 | 25 | 1019.2 |
| 20260503170332 | 66 | 135 | 1.0 | 2.0 | 0.00 | 0.00 | 0.00 | 25 | 1019.3 |
| 20260503150730 | 56 | 135 | 2.0 | 3.0 | 0.00 | 0.00 | 0.00 | 48 | 1020.1 |
| 20260503130632 | 45 | 292 | 0.0 | 2.0 | 0.00 | 0.00 | 0.00 | 62 | 1018.9 |
| 20260503110732 | 45 | 315 | 0.0 | 0.0 | 0.00 | 0.00 | 0.00 | 59 | 1019.4 |
| 20260503090130 | 49 | 315 | 0.0 | 0.0 | 0.00 | 0.00 | 0.00 | 40 | 1019.4 |
| 20260503081231 | 52 | 315 | 1.0 | 3.0 | 0.00 | 0.00 | 0.00 | 34 | 1019.5 |
| 20260503071330 | 53 | 315 | 1.0 | 1.0 | 0.00 | 0.00 | 0.00 | 35 | 1019.6 |
| 20260503070333 | 54 | 315 | 0.0 | 0.0 | 0.00 | 0.00 | 0.00 | 33 | 1019.7 |
| 20260503054612 | 57 | 180 | 0.0 | 0.0 | 0.00 | 0.00 | 0.00 | 29 | 1019.6 |
| 20260503053613 | 57 | 180 | 0.0 | 0.0 | 0.00 | 0.00 | 0.00 | 29 | 1019.4 |
| 20260503051615 | 59 | 210 | 2.0 | 3.0 | 0.00 | 0.00 | 0.00 | 27 | 1019.4 |
| 20260503050612 | 60 | 249 | 1.0 | 3.0 | 0.00 | 0.00 | 0.00 | 26 | 1019.2 |
| 20260503045614 | 61 | 12 | 3.0 | 4.0 | 0.00 | 0.00 | 0.00 | 26 | 1019.2 |
| 20260503044711 | 61 | 343 | 1.0 | 3.0 | 0.00 | 0.00 | 0.00 | 25 | 1019.3 |
| 20260503044614 | 61 | 338 | 0.0 | 3.0 | 0.00 | 0.00 | 0.00 | 25 | 1019.4 |
| 20260503043614 | 61 | 345 | 3.0 | 5.0 | 0.00 | 0.00 | 0.00 | 25 | 1019.2 |
| 20260503041714 | 61 | 356 | 5.0 | 7.0 | 0.00 | 0.00 | 0.00 | 24 | 1019.4 |